sat.trackr.live / text

‹ back to catalog

STARLINK-5305

NORAD 55314 · 2023-010AX

PAYLOAD ACTIVE UNKNOWN

§ Identity

Operator
Country
US
Launch date
2023-01-19
Launch site
AFWTR
Launch vehicle
Mass (kg)
RCS (m²)

Purposes: comms

External: N2YO · Heavens-Above · Gunter

§ Orbital elements

Epoch: 2026-05-25T03:34:06.936960Z

Period
96.11 min
Inclination
69.9985°
Eccentricity
0.0003351
Mean motion
14.98323820 rev/d
Perigee alt
569.7 km
Apogee alt
574.4 km
Semi-major
6,950.2 km
B*
3.8108e-5
RAAN
171.7307°
Arg perigee
269.3276°
Mean anomaly
90.7499°
Rev number
18,609

§ Raw data

STARLINK-53051 55314U 23010AX  26145.14869140  .00000362  00000+0  38108-4 0  99992 55314  69.9985 171.7307 0003351 269.3276  90.7499 14.98323820186091

JSON: /api/v1/satellites/55314 · /tle

For live sub-satellite position, see the globe view (requires WebGL).

§ Visibility from observer

Set your observer location to see the next 7 days of passes ≥ 10°. The values pass through the URL so the page stays shareable.

No JS? Fill the form by hand. The geolocation button needs JavaScript.